Location: Avon
(37.7514°N, 90.2235°W)
Time: 04:00:55
(UTC+00:00)

Explorer 7 - Pass Details

Date: 13 November 2024
Orbit: 456 x 598 km, 50.3° (Epoch: 03 December)

Event Time Altitude Azimuth Distance (km) Brightness Sun altitude
Exits shadow 11:10:32 17° 341° (NNW) 1,419 8.6 -17.7°
Maximum altitude 11:10:54 17° 348° (NNW) 1,415 8.7 -17.6°
Drops below altitude 10° 11:13:44 10° 30° (NNE) 1,849 9.7 -17.1°
Sets 11:16:42 0° 51° (NE) 2,777 11.0 -16.5°
